Regional Weather Roundup
Issued by NWS Cleveland, OH

Home | Current Version | Previous Version | Text Only | Print | Product List | Glossary Off
Versions: 1 2 3 4 5 6 7 8 9 10 11 12 13 14 15 16 17 18 19 20 21 22 23 24 25 26 27 28 29 30 31 32 33 34 35 36 37 38 39 40 41 42 43 44 45 46 47 48 49 50

000
ASUS41 KCLE 191510
RWRCLE
OHIO REGIONAL WEATHER ROUNDUP
NATIONAL WEATHER SERVICE WILMINGTON, OH
1000 AM EST MON FEB 19 2018

NOTE: "FAIR" INDICATES FEW OR NO CLOUDS BELOW 12,000 FEET WITH NO
SIGNIFICANT WEATHER AND/OR OBSTRUCTIONS TO VISIBILITY.

OHZ001>008-015>018-024>027-034-035-043-044-191600-
   NORTHWEST OHIO

CITY           SKY/WX    TMP DP  RH WIND       PRES   REMARKS
DEFIANCE       RAIN      43  41  93 S5        29.99S FOG
FINDLAY        LGT RAIN  50  46  86 S10       30.00F
TOLEDO EXPRESS CLOUDY    42  42 100 S5        30.00S FOG
TOLEDO EXEC    CLOUDY    43  42  97 S8        30.00F FOG
LIMA           LGT RAIN  50  50 100 S10       30.02S FOG
$$

OHZ009>014-019>023-028>033-038-089-191600-
   NORTHEAST OHIO

CITY           SKY/WX    TMP DP  RH WIND       PRES   REMARKS
CLE-HOPKINS    LGT RAIN  47  44  90 S15G21    30.09S
CLE-LAKEFRONT  LGT RAIN  46  42  86 SE22G28   30.06R
CUY CO. ARPT   LGT RAIN  46  45  93 S15       30.08F
LORAIN-ELYRIA  LGT RAIN  42  37  82 S13       30.05F
ASHTABULA      LGT RAIN  41  39  93 S13G21    30.09F
AKRON-CANTON   RAIN      44  41  89 S7        30.12F FOG
WOOSTER        RAIN      42  41  96 S9        30.10F FOG
MANSFIELD      CLOUDY    47  46  97 S10       30.06S FOG
YOUNGSTOWN     LGT RAIN  43  41  93 S13       30.11F
$$

OHZ042-051>053-060>062-070>072-077>081-191600-
  SOUTHWEST OHIO

CITY           SKY/WX    TMP DP  RH WIND       PRES   REMARKS
CINC-COVINGTON CLOUDY    62  58  86 S17G28    30.06F
CINC-LUNKEN    CLOUDY    61  56  83 S13       30.08F
HAMILTON       CLOUDY    60  58  92 S8        30.06F
DAYTON         LGT RAIN  53  53 100 S13       30.04F FOG
WRIGHT-PAT AFB LGT RAIN  56  56 100 S14       30.04S
DAYTON GENERAL CLOUDY    57  54  89 S13       30.04F
WILMINGTON     LGT RAIN  56  56 100 S15       30.07S
$$

OHZ036-037-039>041-045>050-054>059-063>069-073>076-082>088-191600-
  CENTRAL AND SOUTHEAST OHIO

CITY           SKY/WX    TMP DP  RH WIND       PRES   REMARKS
COLUMBUS       LGT RAIN  53  51  93 S10       30.08S FOG
OSU AIRPORT    LGT RAIN  48  48 100 SE5       30.08S FOG
BOLTON FIELD   LGT RAIN  46  46 100 S9        30.08S
RICKENBACK AFB CLOUDY    51  51 100 S17G24    30.08S
NEWARK         CLOUDY    50  47  89 S9        30.09S
MARION         LGT RAIN  48  46  93 S12       30.05F FOG
LANCASTER      CLOUDY    53  50  89 S13       30.10F
ZANESVILLE     CLOUDY    51  47  86 S9        30.12F
NEW PHILLY     RAIN      51  48  89 VRB5      30.14R FOG
$$




USA.gov is the U.S. government's official web portal to all federal, state and local government web resources and services.